Temperature
7 7 7 8 9 9 9 9 10 10 12 12 12 12 13 14 15 15 16 16 17 17 17 17 17 17 17 17 17 16 16 16 16 15 15 15 15 15 15 15 15 15 14 14
7 7 8 9 9 10 10 10 10 11 12 12 11 11 12 13 14 15 15 16 16 16 16 16 16 16 16 16 16 16 16 16 16 15 15 15 15 15 15 15 15 14 14 14
7 8 9 9 9 9 10 9 9 10 11 12 11 11 11 12 13 14 15 16 16 15 15 15 15 15 16 16 16 16 15 15 15 15 15 15 15 15 14 14 14 14 14 14
7 8 9 9 9 9 9 10 10 10 10 9 10 9 10 10 11 12 13 14 14 14 14 14 14 14 15 15 15 15 15 15 15 15 14 14 14 14 14 14 14 14 14 13
6 7 8 8 9 9 10 10 10 10 9 9 9 8 9 10 10 11 11 12 13 13 13 13 13 13 13 13 13 13 14 14 14 14 14 14 14 14 13 13 13 13 13 13
7 7 7 8 9 9 9 9 9 8 8 8 8 8 8 8 10 10 10 11 12 12 12 12 12 12 12 12 12 12 12 12 13 13 13 13 13 13 13 13 12 12 12 12
7 7 7 8 8 9 9 8 8 8 8 7 8 8 9 9 9 10 10 10 11 11 11 11 11 11 11 11 11 11 11 11 11 12 12 12 12 12 12 12 12 12 12 12
6 6 7 7 8 8 8 8 7 7 7 7 8 7 8 9 9 11 11 11 11 11 11 11 10 10 10 10 10 10 10 10 10 10 10 10 10 10 10 10 10 11 11 11
6 6 7 7 8 8 8 8 8 7 7 7 7 8 9 9 8 8 9 10 10 10 10 10 10 10 9 9 9 9 9 9 9 9 9 9 9 9 9 9 9 9 9 9
7 7 7 8 8 8 8 8 7 6 7 7 8 8 8 8 8 7 8 9 10 10 10 10 9 9 9 9 8 8 8 8 8 8 8 8 8 8 8 8 8 8 8 8
7 6 7 7 7 7 8 8 7 6 6 7 7 8 9 8 8 8 8 9 10 10 10 9 9 9 8 8 8 8 7 7 7 7 7 7 7 7 7 7 7 7 7 7
7 6 6 6 7 8 8 8 7 6 6 6 5 7 9 8 8 8 8 9 10 10 10 9 9 8 8 7 7 7 7 7 7 6 6 6 6 6 6 6 6 6 6 7
7 6 5 6 6 7 7 7 7 6 6 4 5 7 8 7 8 9 9 10 10 10 9 9 8 8 7 7 7 6 6 6 6 6 6 5 5 5 5 5 5 6 6 6
7 6 5 6 6 6 6 7 7 6 5 5 5 7 8 8 8 8 9 10 10 10 9 9 8 8 7 6 6 6 5 5 5 5 5 5 5 5 5 5 5 5 5 5
7 6 6 6 7 6 6 7 6 6 5 5 6 7 8 8 8 9 9 10 9 9 9 8 8 7 6 6 5 5 5 4 4 4 4 4 4 4 4 4 4 4 3 4
7 6 7 7 7 7 7 7 6 6 6 6 7 7 8 9 9 9 9 9 9 9 9 8 8 7 6 5 5 4 4 4 3 3 3 3 3 3 3 3 3 2 3 3
6 6 6 5 6 6 5 6 7 6 6 7 7 8 8 8 8 9 9 9 9 9 9 8 7 7 6 5 4 4 3 3 3 3 3 3 2 2 2 2 2 2 1 2
6 5 5 5 6 5 6 7 7 7 7 7 7 8 8 8 10 10 10 10 10 10 9 8 7 6 5 4 3 3 3 2 2 2 2 2 2 2 1 1 1 1 1 1
6 6 5 4 4 5 6 8 7 7 7 7 7 8 8 9 8 8 9 10 10 9 9 8 7 6 5 4 3 2 2 2 1 1 1 1 1 1 1 1 0 0 0 -0
6 6 5 5 5 5 7 8 9 8 7 8 7 7 7 7 6 7 9 9 9 8 7 7 6 5 4 3 2 2 1 1 1 1 1 1 1 0 0 0 -0 -0 -0 -0
5 5 5 5 5 5 7 8 8 7 7 8 8 8 8 7 8 9 9 8 8 7 6 6 5 4 3 2 2 1 1 1 1 1 0 0 0 0 -0 -0 -0 -0 -1 -1
5 5 5 5 5 6 7 7 7 7 8 8 8 8 8 8 8 8 8 8 7 6 6 5 4 3 3 2 2 1 1 1 0 0 0 0 0 -0 -0 -0 -0 -1 -1 -1
5 5 5 5 6 7 8 8 9 9 9 9 9 9 8 8 8 8 7 7 6 6 5 4 4 3 2 2 2 1 1 0 0 0 0 -0 -0 -0 -0 -0 -1 -1 -1 -1
5 5 5 5 5 7 8 9 9 9 9 9 9 8 8 8 8 7 7 6 6 5 4 4 3 3 3 2 2 1 1 0 0 0 -0 -0 -0 -0 -0 -1 -1 -1 -1 -1
5 5 5 5 6 7 8 9 9 9 8 8 8 8 8 8 7 7 6 6 5 5 4 4 3 3 3 2 2 1 1 0 0 0 -0 -0 -0 -0 -1 -1 -1 -1 -1 -1
4 5 5 5 6 6 8 9 9 8 8 8 8 7 7 7 7 6 6 6 5 4 4 3 3 3 3 2 2 1 1 0 0 0 0 -0 -0 -0 -1 -1 -1 -1 -1 -1
Wind_Speed
5 5 8 9 8 4 7 8 7 6 5 7 8 8 9 6 4 6 6 5 5 4 1 3 4 5 6 6 5 4 3 1 1 2 2 3 4 4 4 5 7 8 9 10
4 5 6 6 5 4 6 7 6 3 4 6 7 10 9 8 6 7 8 8 7 5 4 4 5 6 6 6 5 5 4 3 2 1 2 2 3 3 4 3 4 7 8 8
5 3 6 7 6 5 4 7 8 5 2 2 4 7 10 9 6 6 7 7 7 9 8 5 5 6 6 7 6 4 4 3 2 1 1 1 1 1 1 2 3 4 6 7
1 1 6 8 6 6 4 4 7 7 7 3 5 5 8 9 9 9 9 7 7 8 8 7 6 6 6 5 5 6 6 5 5 3 2 2 1 2 2 2 3 4 4 5
2 2 6 6 5 5 4 2 5 6 6 2 3 3 8 5 10 12 10 8 8 8 9 8 7 6 6 5 5 6 7 7 6 6 4 3 2 1 1 2 2 3 3 4
2 1 2 2 2 4 3 5 7 5 4 4 7 6 8 6 11 9 9 9 9 9 8 8 6 6 6 5 6 6 7 7 7 7 7 5 4 3 3 3 3 3 3 3
3 2 2 1 4 1 4 6 4 2 3 6 5 6 10 8 9 11 13 11 10 10 9 8 7 6 5 6 6 6 7 6 6 7 7 6 5 4 3 3 2 3 3 3
5 3 2 1 3 5 5 6 7 6 6 4 4 8 8 7 6 7 11 12 11 9 8 8 7 6 5 5 5 5 6 5 6 6 6 6 5 4 3 4 3 3 2 3
5 3 2 1 1 4 5 4 4 4 2 2 6 6 7 3 4 8 11 11 10 9 8 8 7 6 6 5 5 5 5 5 5 6 5 6 6 5 5 5 4 4 4 4
4 4 2 2 2 1 2 5 5 4 5 4 5 5 5 6 7 9 11 11 9 8 8 7 7 6 5 5 4 5 5 5 5 5 5 5 6 6 6 6 6 6 6 6
3 5 3 2 5 6 4 4 4 4 4 5 4 7 6 10 11 12 11 10 10 9 9 8 6 6 6 5 5 5 5 5 5 5 5 6 6 6 7 7 7 6 7 7
4 4 3 2 2 3 4 5 6 5 5 4 3 7 6 7 9 10 10 9 8 9 8 8 7 6 6 6 5 5 5 5 5 5 6 6 6 6 7 7 7 7 7 8
5 5 4 0 2 2 4 5 5 4 4 4 5 7 5 2 7 9 10 9 8 8 8 7 7 7 6 6 5 5 5 5 5 6 6 6 6 7 7 7 7 8 8 8
5 4 5 8 6 6 5 6 7 6 5 5 7 7 4 3 7 8 9 10 9 9 9 8 7 6 6 6 6 6 5 5 5 6 6 6 6 6 6 7 7 8 7 8
4 3 4 4 3 5 6 7 9 10 9 9 8 8 8 9 10 10 10 9 8 8 9 9 9 7 7 6 6 6 5 5 6 6 6 6 5 6 6 7 7 7 8 8
3 3 1 2 4 4 6 9 11 12 10 10 8 9 8 6 6 7 8 10 10 10 10 10 9 9 8 8 7 6 6 5 6 6 6 5 6 6 6 6 7 7 8 8
2 4 2 3 3 2 8 11 14 9 8 9 14 12 5 5 9 11 11 11 11 11 10 10 10 9 9 8 8 7 6 6 6 6 6 5 6 6 6 6 7 7 6 6
6 5 3 2 0 7 9 5 8 10 11 11 9 7 9 11 9 7 8 11 10 10 10 10 9 8 8 7 7 7 7 7 6 6 6 5 6 6 6 6 6 5 5 5
6 6 3 3 4 8 9 5 6 7 8 11 13 9 7 5 3 2 4 6 8 8 8 8 8 8 8 9 8 8 7 7 6 6 5 5 6 6 6 5 5 4 4 4
4 5 4 4 3 6 6 3 2 3 6 5 9 10 8 8 6 6 5 5 5 7 7 8 8 8 9 8 8 9 8 7 7 6 6 6 5 6 6 5 4 3 3 3
4 4 6 5 5 8 7 3 4 3 6 3 3 6 8 9 6 4 6 6 6 7 7 8 9 8 8 8 9 9 8 7 6 6 6 6 5 6 6 5 4 4 4 3
8 6 6 6 7 9 4 6 6 7 2 1 2 4 5 5 4 6 6 7 8 7 7 8 8 7 7 8 9 8 8 7 7 7 6 6 6 5 5 5 4 4 4 4
8 9 6 8 9 6 5 7 6 5 4 3 3 3 5 5 5 5 6 7 7 8 8 7 8 8 6 7 9 9 8 8 8 7 7 6 6 5 5 5 5 4 4 3
5 4 4 5 8 7 6 5 4 5 5 5 5 5 6 5 6 6 6 7 7 8 8 7 9 9 8 7 8 8 9 9 8 8 7 6 6 5 5 4 4 4 4 4
5 4 4 6 6 4 5 6 6 4 4 4 3 4 5 6 5 6 6 7 7 7 8 8 9 10 9 8 8 8 9 9 8 8 7 6 6 6 5 4 4 5 4 5
6 7 7 8 7 6 6 5 5 6 6 6 5 3 3 4 5 5 6 6 7 8 8 9 9 9 9 9 9 9 10 10 10 8 7 6 6 5 5 4 2 5 5 7
Wind_Direction
161 168 188 190 182 156 147 146 169 202 201 171 200 227 247 262 236 223 218 208 199 194 130 80 73 81 85 69 76 81 99 105 156 166 194 208 226 231 229 227 226 226 228 227
132 197 193 168 174 155 145 155 176 204 205 182 214 240 251 250 233 220 210 206 191 162 125 82 67 64 71 72 67 67 65 57 69 178 199 206 221 233 238 249 247 240 239 237
156 182 172 168 182 175 181 178 178 170 139 128 162 260 252 254 235 226 215 197 179 168 153 123 89 73 67 57 50 56 51 51 42 34 88 52 53 0 313 273 266 260 253 249
121 176 159 166 183 172 204 211 178 155 141 203 173 235 264 234 232 224 213 189 170 154 142 129 111 88 72 58 47 47 47 47 38 43 72 112 161 223 255 272 276 294 289 275
140 138 149 168 177 164 191 188 147 148 139 140 180 203 275 235 225 224 208 187 169 154 142 132 121 106 84 64 53 46 50 44 35 42 55 75 73 274 312 336 336 325 322 317
83 71 100 154 147 156 143 91 72 68 92 217 207 191 267 231 218 210 193 180 163 149 137 128 116 103 83 62 54 51 55 45 36 41 44 52 50 30 18 359 348 339 337 344
74 49 26 101 114 108 137 123 112 137 200 239 200 200 247 250 232 202 181 170 160 150 140 133 124 108 90 70 57 53 57 45 34 41 42 39 41 44 36 5 359 357 358 353
142 169 193 141 155 168 181 151 159 177 198 250 201 224 252 279 259 178 156 153 151 148 145 142 138 126 108 89 72 63 62 49 36 39 38 34 33 38 30 21 22 18 8 353
152 159 133 156 149 150 153 167 154 135 163 219 246 266 300 0 94 131 142 147 153 154 151 145 137 129 123 106 89 82 76 60 43 40 43 38 32 35 32 29 31 24 11 12
135 131 151 141 109 332 167 146 120 140 167 229 261 249 237 218 185 163 159 159 159 154 150 147 143 140 131 119 103 87 82 74 55 44 43 51 35 37 39 42 38 34 27 26
117 125 142 153 198 186 167 161 151 152 179 187 242 262 226 209 195 180 175 169 165 164 162 159 154 146 134 122 110 97 86 77 63 56 54 52 44 44 47 47 40 38 38 35
145 123 141 221 261 206 193 188 161 170 215 196 206 268 285 231 193 174 173 175 173 169 165 160 155 146 139 133 122 109 98 87 77 73 67 60 52 50 51 48 42 43 45 42
142 123 116 24 300 236 221 206 186 159 146 179 192 263 325 98 155 166 169 172 172 167 162 158 156 156 154 148 137 124 113 104 91 84 77 67 57 55 53 51 48 50 51 50
122 135 171 193 212 184 198 208 185 163 185 211 221 250 288 181 167 173 177 178 177 177 172 170 170 169 163 155 146 135 124 116 105 93 85 77 68 65 63 61 58 57 57 57
115 168 211 229 218 176 202 210 199 201 200 201 228 227 237 213 194 188 186 184 182 185 185 183 179 174 164 154 147 139 130 122 114 104 95 90 82 77 74 70 65 61 61 61
114 166 188 284 247 225 242 231 217 219 218 224 240 251 244 221 193 191 193 189 194 199 196 189 180 173 169 164 156 145 137 131 122 114 107 102 94 88 82 77 73 69 65 61
164 154 155 267 296 340 265 230 218 215 210 201 228 237 223 202 200 201 201 200 205 204 196 188 182 177 172 168 158 153 147 134 125 121 119 115 109 101 91 87 80 74 69 68
158 147 158 211 114 243 246 239 206 217 231 215 223 224 209 212 212 208 201 199 207 201 189 182 173 167 161 156 151 145 142 138 134 132 129 124 118 111 103 95 91 83 76 74
162 159 169 183 238 277 284 253 191 198 252 225 223 225 210 193 155 245 222 196 198 189 174 168 163 157 154 155 152 145 144 143 142 144 142 136 133 127 122 115 111 105 98 89
146 145 167 190 224 252 263 276 174 133 270 254 212 208 189 158 187 234 196 163 155 147 146 149 147 145 152 157 150 147 151 151 155 154 148 142 139 138 137 135 130 120 116 111
163 177 196 204 236 265 258 230 118 173 254 295 189 182 172 185 201 181 149 147 149 146 147 147 149 155 162 158 152 154 157 165 160 148 142 141 142 145 143 139 138 135 126 118
180 188 196 190 221 253 237 151 185 220 231 109 121 144 157 161 137 141 151 154 153 152 153 152 153 158 161 159 156 160 170 165 151 146 146 147 150 151 145 141 143 141 137 132
196 194 191 198 218 241 211 204 218 182 176 182 161 157 151 155 169 168 170 171 171 167 165 161 159 160 165 168 164 169 173 162 155 151 154 155 150 146 147 151 153 147 149 154
245 194 190 236 254 250 240 232 224 198 193 189 176 169 167 176 180 179 177 179 180 177 175 168 166 172 179 179 176 174 168 164 159 161 164 163 158 155 154 158 162 164 171 175
233 194 210 244 262 276 258 225 215 204 184 168 168 176 181 180 187 189 190 192 189 187 181 178 183 187 189 183 182 176 171 166 167 170 172 172 171 167 168 172 184 185 199 193
215 199 203 230 227 217 238 227 195 185 192 187 177 179 182 184 195 194 201 199 193 191 186 188 192 192 190 187 188 183 177 174 172 177 180 179 175 174 174 174 189 217 209 216
Height
1491 1495 1495 1495 1497 1499 1502 1506 1509 1508 1505 1507 1510 1511 1508 1507 1508 1508 1510 1511 1513 1515 1517 1518 1520 1522 1523 1524 1526 1527 1529 1530 1531 1532 1533 1534 1535 1536 1538 1538 1539 1540 1540 1540
1493 1494 1493 1495 1497 1498 1500 1505 1508 1507 1504 1508 1511 1511 1507 1506 1506 1506 1507 1508 1510 1512 1514 1516 1517 1519 1520 1522 1523 1524 1525 1526 1527 1528 1529 1530 1531 1532 1533 1534 1535 1535 1535 1535
1492 1492 1492 1494 1497 1499 1501 1505 1508 1508 1507 1508 1512 1513 1508 1503 1503 1503 1504 1505 1507 1509 1510 1513 1514 1516 1517 1518 1520 1521 1522 1522 1523 1524 1525 1526 1527 1527 1528 1529 1529 1530 1530 1530
1492 1491 1492 1495 1497 1498 1502 1501 1503 1506 1512 1517 1515 1522 1509 1502 1501 1500 1500 1502 1503 1506 1508 1510 1512 1513 1514 1515 1516 1517 1518 1519 1519 1520 1521 1521 1522 1522 1523 1524 1524 1525 1525 1525
1493 1492 1493 1495 1496 1497 1499 1499 1502 1506 1512 1517 1516 1521 1510 1500 1499 1496 1496 1498 1500 1503 1505 1507 1509 1511 1512 1513 1513 1514 1515 1515 1516 1516 1516 1517 1517 1518 1518 1518 1518 1519 1519 1519
1493 1493 1494 1495 1496 1497 1498 1501 1505 1510 1514 1520 1515 1519 1511 1500 1492 1490 1492 1495 1498 1501 1503 1506 1507 1509 1510 1510 1511 1511 1512 1512 1512 1512 1513 1513 1513 1513 1513 1513 1513 1513 1513 1513
1494 1495 1495 1495 1497 1499 1499 1506 1514 1517 1519 1519 1511 1512 1502 1488 1485 1484 1487 1491 1495 1498 1501 1503 1505 1507 1508 1508 1508 1509 1509 1509 1509 1509 1509 1509 1509 1509 1509 1509 1508 1508 1508 1507
1497 1498 1496 1496 1496 1498 1500 1503 1512 1517 1518 1518 1509 1508 1494 1485 1480 1480 1483 1488 1493 1496 1499 1502 1504 1505 1506 1506 1507 1507 1507 1507 1506 1506 1506 1506 1505 1505 1505 1504 1504 1503 1503 1502
1495 1497 1495 1495 1495 1496 1498 1501 1503 1511 1512 1514 1509 1499 1489 1483 1481 1481 1484 1487 1491 1494 1498 1500 1502 1503 1504 1505 1505 1505 1505 1504 1504 1503 1503 1502 1502 1501 1501 1500 1500 1499 1498 1498
1490 1494 1494 1495 1495 1496 1496 1498 1506 1511 1513 1511 1503 1498 1493 1485 1484 1484 1484 1486 1490 1493 1496 1499 1501 1502 1503 1503 1503 1503 1502 1502 1501 1500 1500 1499 1498 1498 1497 1497 1496 1495 1494 1493
1488 1494 1496 1496 1496 1495 1497 1499 1501 1507 1509 1510 1506 1497 1481 1480 1480 1481 1483 1485 1489 1492 1495 1497 1499 1500 1500 1501 1501 1500 1500 1499 1498 1498 1497 1496 1495 1495 1494 1493 1492 1492 1491 1490
1487 1494 1497 1497 1495 1493 1494 1494 1499 1505 1507 1509 1511 1498 1475 1475 1476 1479 1482 1485 1488 1491 1493 1495 1497 1498 1498 1498 1498 1498 1497 1496 1496 1495 1494 1494 1493 1492 1491 1490 1489 1489 1488 1487
1485 1494 1500 1500 1500 1496 1493 1492 1493 1498 1504 1510 1510 1494 1475 1473 1475 1478 1481 1484 1487 1489 1491 1493 1494 1495 1495 1495 1495 1495 1494 1494 1493 1493 1492 1491 1491 1490 1489 1488 1487 1486 1486 1485
1483 1491 1496 1496 1492 1491 1492 1490 1491 1497 1503 1504 1499 1488 1478 1477 1477 1478 1480 1482 1485 1487 1489 1490 1491 1492 1492 1493 1492 1492 1492 1492 1491 1491 1490 1490 1489 1488 1487 1486 1486 1485 1484 1484
1482 1489 1488 1487 1484 1486 1487 1486 1487 1491 1492 1495 1487 1483 1476 1475 1475 1476 1478 1480 1483 1484 1486 1487 1488 1489 1489 1489 1490 1490 1489 1489 1489 1488 1488 1488 1487 1487 1486 1485 1485 1484 1484 1483
1483 1486 1486 1485 1483 1483 1484 1481 1482 1482 1482 1483 1481 1478 1472 1471 1473 1474 1476 1477 1479 1480 1482 1483 1484 1485 1486 1486 1487 1487 1487 1487 1487 1487 1486 1486 1486 1486 1485 1485 1485 1484 1484 1483
1484 1486 1489 1492 1485 1483 1485 1474 1474 1475 1473 1474 1474 1470 1469 1470 1470 1471 1472 1474 1475 1477 1478 1479 1480 1481 1482 1483 1484 1484 1485 1485 1485 1485 1485 1485 1485 1485 1485 1485 1485 1484 1484 1483
1482 1486 1490 1492 1489 1492 1473 1464 1464 1466 1464 1465 1463 1462 1463 1464 1466 1467 1469 1470 1472 1473 1475 1476 1477 1478 1479 1480 1481 1482 1482 1482 1483 1483 1483 1484 1484 1484 1485 1485 1485 1485 1484 1484
1476 1481 1487 1491 1491 1482 1468 1461 1461 1464 1462 1457 1458 1458 1460 1461 1464 1465 1466 1467 1469 1470 1471 1473 1474 1475 1476 1477 1478 1479 1480 1480 1481 1482 1482 1483 1484 1484 1484 1484 1485 1485 1485 1484
1475 1478 1484 1487 1485 1481 1466 1458 1456 1460 1461 1452 1452 1454 1457 1459 1465 1463 1463 1464 1466 1467 1468 1470 1471 1472 1473 1475 1476 1477 1477 1478 1479 1481 1481 1482 1483 1483 1484 1484 1485 1485 1485 1485
1476 1478 1481 1483 1481 1473 1460 1456 1458 1466 1460 1451 1449 1450 1453 1455 1458 1459 1460 1462 1463 1465 1466 1467 1468 1470 1471 1472 1473 1474 1475 1477 1478 1479 1480 1481 1482 1483 1484 1484 1485 1485 1485 1484
1472 1475 1476 1477 1477 1471 1455 1456 1458 1456 1452 1451 1450 1450 1452 1454 1456 1457 1458 1460 1461 1462 1463 1465 1466 1467 1469 1470 1471 1472 1473 1475 1477 1478 1479 1480 1481 1482 1483 1484 1484 1484 1484 1484
1464 1464 1465 1465 1463 1454 1451 1451 1451 1451 1451 1451 1451 1452 1452 1453 1454 1455 1457 1458 1459 1460 1461 1462 1463 1465 1466 1467 1469 1470 1472 1473 1475 1477 1478 1479 1480 1481 1482 1483 1483 1483 1483 1483
1457 1456 1458 1458 1453 1450 1449 1449 1449 1450 1450 1450 1451 1451 1452 1452 1453 1454 1454 1455 1456 1457 1458 1459 1461 1462 1463 1465 1466 1468 1470 1471 1473 1475 1476 1477 1479 1480 1481 1481 1482 1482 1482 1481
1453 1453 1454 1453 1449 1447 1446 1446 1447 1448 1448 1449 1449 1449 1450 1450 1451 1451 1452 1452 1453 1454 1455 1456 1457 1459 1460 1462 1463 1465 1467 1469 1471 1472 1474 1475 1477 1478 1479 1480 1480 1480 1480 1480
1449 1449 1451 1448 1444 1445 1443 1443 1444 1445 1446 1446 1447 1447 1448 1448 1448 1449 1449 1449 1450 1451 1452 1453 1454 1455 1457 1459 1460 1462 1464 1466 1468 1470 1471 1473 1475 1476 1477 1478 1478 1478 1478 1478